Time,TemperatureF,DewpointF,PressureIn,WindDirection,WindDirectionDegrees,WindSpeedMPH,WindSpeedGustMPH,Humidity,HourlyPrecipIn,Conditions,Clouds,dailyrainin,SoftwareType,DateUTC
2013-02-22 00:01:00,14.0,8.0,-100.00,North,5,1.0,3.0,76,0.00,,,-99.99,,2013-02-22 06:01:00,
2013-02-22 00:12:00,14.0,8.0,-100.00,North,5,1.0,3.0,76,0.00,,,-99.99,,2013-02-22 06:12:00,
2013-02-22 00:22:00,14.0,8.0,-100.00,North,0,1.0,3.0,76,0.00,,,-99.99,,2013-02-22 06:22:00,
2013-02-22 00:31:00,13.0,7.0,-100.00,North,0,1.0,3.0,76,0.00,,,-99.99,,2013-02-22 06:31:00,
2013-02-22 00:42:00,13.0,8.0,-100.00,North,0,2.0,2.0,77,0.00,,,-99.99,,2013-02-22 06:42:00,
2013-02-22 00:51:00,13.0,8.0,-100.00,North,0,2.0,2.0,77,0.00,,,-99.99,,2013-02-22 06:51:00,
2013-02-22 01:01:00,13.0,8.0,-100.00,North,355,2.0,4.0,77,0.00,,,-99.99,,2013-02-22 07:01:00,
2013-02-22 01:11:00,13.0,8.0,-100.00,North,355,2.0,4.0,77,0.00,,,-99.99,,2013-02-22 07:11:00,
2013-02-22 01:21:00,13.0,8.0,-100.00,North,355,1.0,3.0,77,0.00,,,-99.99,,2013-02-22 07:21:00,
2013-02-22 01:31:00,13.0,8.0,-100.00,North,0,2.0,4.0,77,0.00,,,-99.99,,2013-02-22 07:31:00,
2013-02-22 01:42:00,13.0,7.0,-100.00,North,10,1.0,4.0,77,0.00,,,-99.99,,2013-02-22 07:42:00,
2013-02-22 01:51:00,13.0,7.0,-100.00,North,10,1.0,4.0,77,0.00,,,-99.99,,2013-02-22 07:51:00,
2013-02-22 02:01:00,13.0,7.0,-100.00,North,10,1.0,2.0,78,0.00,,,-99.99,,2013-02-22 08:01:00,
2013-02-22 02:11:00,13.0,7.0,-100.00,North,10,1.0,2.0,78,0.00,,,-99.99,,2013-02-22 08:11:00,
2013-02-22 02:21:00,13.0,8.0,-100.00,North,0,2.0,4.0,78,0.00,,,-99.99,,2013-02-22 08:21:00,
2013-02-22 02:31:00,13.0,8.0,-100.00,North,350,2.0,4.0,78,0.00,,,-99.99,,2013-02-22 08:31:00,
2013-02-22 02:42:00,14.0,8.0,-100.00,North,0,2.0,4.0,78,0.00,,,-99.99,,2013-02-22 08:42:00,
2013-02-22 02:52:00,14.0,8.0,-100.00,North,0,2.0,4.0,78,0.00,,,-99.99,,2013-02-22 08:52:00,
2013-02-22 03:03:00,14.0,8.0,-100.00,North,355,2.0,6.0,78,0.00,,,-99.99,,2013-02-22 09:03:00,
2013-02-22 03:11:00,14.0,8.0,-100.00,North,355,2.0,6.0,78,0.00,,,-99.99,,2013-02-22 09:11:00,
2013-02-22 03:21:00,14.0,9.0,-100.00,North,0,2.0,4.0,78,0.00,,,-99.99,,2013-02-22 09:21:00,
2013-02-22 03:32:00,14.0,8.0,-100.00,North,355,2.0,5.0,77,0.00,,,-99.99,,2013-02-22 09:32:00,
2013-02-22 03:42:00,14.0,9.0,-100.00,North,0,1.0,4.0,78,0.00,,,-99.99,,2013-02-22 09:42:00,
2013-02-22 03:51:00,14.0,9.0,-100.00,North,0,1.0,4.0,78,0.00,,,-99.99,,2013-02-22 09:51:00,
2013-02-22 04:01:00,14.0,9.0,-100.00,North,0,1.0,2.0,78,0.00,,,-99.99,,2013-02-22 10:01:00,
2013-02-22 04:11:00,14.0,9.0,-100.00,North,0,1.0,2.0,78,0.00,,,-99.99,,2013-02-22 10:11:00,
2013-02-22 04:21:00,14.0,9.0,-100.00,NNW,340,2.0,4.0,78,0.00,,,-99.99,,2013-02-22 10:21:00,
2013-02-22 04:32:00,15.0,9.0,-100.00,NNW,345,3.0,4.0,78,0.00,,,-99.99,,2013-02-22 10:32:00,
2013-02-22 04:42:00,15.0,9.0,-100.00,North,10,1.0,4.0,78,0.00,,,-99.99,,2013-02-22 10:42:00,
2013-02-22 04:51:00,15.0,9.0,-100.00,North,10,1.0,4.0,78,0.00,,,-99.99,,2013-02-22 10:51:00,
2013-02-22 05:01:00,14.0,9.0,-100.00,North,0,1.0,2.0,78,0.00,,,-99.99,,2013-02-22 11:01:00,
2013-02-22 05:11:00,14.0,9.0,-100.00,North,0,1.0,2.0,78,0.00,,,-99.99,,2013-02-22 11:11:00,
2013-02-22 05:21:00,14.0,9.0,-100.00,NNW,340,1.0,2.0,79,0.00,,,-99.99,,2013-02-22 11:21:00,
2013-02-22 05:32:00,15.0,9.0,-100.00,NNW,330,2.0,4.0,79,0.00,,,-99.99,,2013-02-22 11:32:00,
2013-02-22 05:42:00,15.0,9.0,-100.00,NNW,335,3.0,4.0,79,0.00,,,-99.99,,2013-02-22 11:42:00,
2013-02-22 05:52:00,15.0,9.0,-100.00,NNW,335,3.0,4.0,79,0.00,,,-99.99,,2013-02-22 11:52:00,
2013-02-22 06:02:00,15.0,10.0,-100.00,NNW,330,3.0,4.0,80,0.00,,,-99.99,,2013-02-22 12:02:00,
2013-02-22 06:11:00,15.0,10.0,-100.00,NNW,330,3.0,4.0,80,0.00,,,-99.99,,2013-02-22 12:11:00,
2013-02-22 06:21:00,15.0,10.0,-100.00,NNW,335,4.0,6.0,81,0.00,,,-99.99,,2013-02-22 12:21:00,
2013-02-22 06:32:00,14.0,10.0,-100.00,North,350,1.0,5.0,81,0.00,,,-99.99,,2013-02-22 12:32:00,
2013-02-22 06:42:00,14.0,9.0,-100.00,NNW,335,2.0,3.0,81,0.00,,,-99.99,,2013-02-22 12:42:00,
2013-02-22 06:52:00,14.0,9.0,-100.00,NNW,335,2.0,3.0,81,0.00,,,-99.99,,2013-02-22 12:52:00,
2013-02-22 07:02:00,14.0,9.0,-100.00,NNW,345,1.0,2.0,81,0.00,,,-99.99,,2013-02-22 13:02:00,
2013-02-22 07:11:00,14.0,9.0,-100.00,NNW,345,1.0,2.0,81,0.00,,,-99.99,,2013-02-22 13:11:00,
2013-02-22 07:22:00,13.0,9.0,-100.00,NNW,330,2.0,4.0,82,0.00,,,-99.99,,2013-02-22 13:22:00,
2013-02-22 07:32:00,13.0,9.0,-100.00,NW,320,2.0,3.0,83,0.00,,,-99.99,,2013-02-22 13:32:00,
2013-02-22 07:42:00,12.0,8.0,-100.00,NW,320,4.0,7.0,84,0.00,,,-99.99,,2013-02-22 13:42:00,
2013-02-22 07:52:00,12.0,8.0,-100.00,NW,320,4.0,7.0,84,0.00,,,-99.99,,2013-02-22 13:52:00,
2013-02-22 08:01:00,12.0,8.0,-100.00,NNW,340,3.0,4.0,85,0.00,,,-99.99,,2013-02-22 14:01:00,
2013-02-22 08:11:00,12.0,8.0,-100.00,NNW,340,3.0,4.0,85,0.00,,,-99.99,,2013-02-22 14:11:00,
2013-02-22 08:21:00,11.0,8.0,-100.00,NW,315,5.0,7.0,85,0.00,,,-99.99,,2013-02-22 14:21:00,
2013-02-22 08:32:00,11.0,8.0,-100.00,NW,320,6.0,7.0,85,0.00,,,-99.99,,2013-02-22 14:32:00,
2013-02-22 08:42:00,11.0,8.0,-100.00,NW,325,4.0,6.0,85,0.00,,,-99.99,,2013-02-22 14:42:00,
2013-02-22 08:52:00,11.0,8.0,-100.00,NW,325,4.0,6.0,85,0.00,,,-99.99,,2013-02-22 14:52:00,
2013-02-22 09:01:00,11.0,8.0,-100.00,NW,310,4.0,6.0,85,0.00,,,-99.99,,2013-02-22 15:01:00,
2013-02-22 09:11:00,11.0,8.0,-100.00,NW,310,4.0,6.0,85,0.00,,,-99.99,,2013-02-22 15:11:00,
2013-02-22 09:21:00,12.0,9.0,-100.00,NW,315,6.0,7.0,85,0.00,,,-99.99,,2013-02-22 15:21:00,
2013-02-22 09:32:00,13.0,9.0,-100.00,NW,315,4.0,8.0,85,0.00,,,-99.99,,2013-02-22 15:32:00,
2013-02-22 09:42:00,12.0,8.0,-100.00,NW,320,6.0,9.0,85,0.00,,,-99.99,,2013-02-22 15:42:00,
2013-02-22 09:52:00,12.0,8.0,-100.00,NW,320,6.0,9.0,85,0.00,,,-99.99,,2013-02-22 15:52:00,
2013-02-22 10:01:00,12.0,9.0,-100.00,NNW,345,6.0,9.0,84,0.00,,,-99.99,,2013-02-22 16:01:00,
2013-02-22 10:12:00,12.0,9.0,-100.00,NNW,345,6.0,9.0,84,0.00,,,-99.99,,2013-02-22 16:12:00,
2013-02-22 10:21:00,14.0,10.0,-100.00,NW,320,4.0,7.0,83,0.00,,,-99.99,,2013-02-22 16:21:00,
2013-02-22 10:32:00,14.0,10.0,-100.00,NW,320,4.0,7.0,82,0.00,,,-99.99,,2013-02-22 16:32:00,
2013-02-22 10:42:00,17.0,12.0,-100.00,NNW,335,4.0,6.0,81,0.00,,,-99.99,,2013-02-22 16:42:00,
2013-02-22 10:52:00,17.0,12.0,-100.00,NNW,335,4.0,6.0,81,0.00,,,-99.99,,2013-02-22 16:52:00,
2013-02-22 11:01:00,16.0,11.0,-100.00,NNW,330,6.0,7.0,79,0.00,,,-99.99,,2013-02-22 17:01:00,
2013-02-22 11:11:00,16.0,11.0,-100.00,NNW,330,6.0,7.0,79,0.00,,,-99.99,,2013-02-22 17:11:00,
2013-02-22 11:21:00,17.0,11.0,-100.00,NW,325,6.0,9.0,79,0.00,,,-99.99,,2013-02-22 17:21:00,
2013-02-22 11:32:00,16.0,11.0,-100.00,NW,310,4.0,9.0,79,0.00,,,-99.99,,2013-02-22 17:32:00,
2013-02-22 11:42:00,17.0,11.0,-100.00,NW,320,5.0,9.0,78,0.00,,,-99.99,,2013-02-22 17:42:00,
2013-02-22 11:52:00,17.0,11.0,-100.00,NW,320,5.0,9.0,78,0.00,,,-99.99,,2013-02-22 17:52:00,
2013-02-22 12:01:00,17.0,11.0,-100.00,NW,310,6.0,9.0,77,0.00,,,-99.99,,2013-02-22 18:01:00,
2013-02-22 12:12:00,17.0,11.0,-100.00,NW,310,6.0,9.0,77,0.00,,,-99.99,,2013-02-22 18:12:00,
2013-02-22 12:22:00,17.0,11.0,-100.00,NW,320,7.0,9.0,77,0.00,,,-99.99,,2013-02-22 18:22:00,
2013-02-22 12:32:00,17.0,11.0,-100.00,NW,315,6.0,9.0,78,0.00,,,-99.99,,2013-02-22 18:32:00,
2013-02-22 12:42:00,17.0,11.0,-100.00,NW,320,2.0,9.0,78,0.00,,,-99.99,,2013-02-22 18:42:00,
2013-02-22 12:51:00,17.0,11.0,-100.00,NW,320,2.0,9.0,78,0.00,,,-99.99,,2013-02-22 18:51:00,
2013-02-22 13:01:00,16.0,11.0,-100.00,NW,320,3.0,9.0,79,0.00,,,-99.99,,2013-02-22 19:01:00,
2013-02-22 13:11:00,16.0,11.0,-100.00,NW,320,3.0,9.0,79,0.00,,,-99.99,,2013-02-22 19:11:00,
2013-02-22 13:21:00,18.0,13.0,-100.00,North,0,6.0,9.0,81,0.00,,,-99.99,,2013-02-22 19:21:00,
2013-02-22 13:31:00,18.0,14.0,-100.00,NW,325,6.0,9.0,81,0.00,,,-99.99,,2013-02-22 19:31:00,
2013-02-22 13:41:00,19.0,14.0,-100.00,NNW,330,6.0,9.0,82,0.00,,,-99.99,,2013-02-22 19:41:00,
2013-02-22 13:52:00,19.0,14.0,-100.00,NNW,330,6.0,9.0,82,0.00,,,-99.99,,2013-02-22 19:52:00,
2013-02-22 14:01:00,19.0,15.0,-100.00,NNW,330,6.0,9.0,82,0.00,,,-99.99,,2013-02-22 20:01:00,
2013-02-22 14:11:00,19.0,15.0,-100.00,NNW,330,6.0,9.0,82,0.00,,,-99.99,,2013-02-22 20:11:00,
2013-02-22 14:21:00,20.0,16.0,-100.00,NW,315,6.0,9.0,81,0.00,,,-99.99,,2013-02-22 20:21:00,
2013-02-22 14:31:00,21.0,17.0,-100.00,North,0,5.0,9.0,81,0.00,,,-99.99,,2013-02-22 20:31:00,
2013-02-22 14:41:00,20.0,16.0,-100.00,NNW,330,6.0,9.0,81,0.00,,,-99.99,,2013-02-22 20:41:00,
2013-02-22 14:52:00,20.0,16.0,-100.00,NNW,330,6.0,9.0,81,0.00,,,-99.99,,2013-02-22 20:52:00,
2013-02-22 15:01:00,20.0,15.0,-100.00,NW,325,4.0,9.0,82,0.00,,,-99.99,,2013-02-22 21:01:00,
2013-02-22 15:11:00,20.0,15.0,-100.00,NW,325,4.0,9.0,82,0.00,,,-99.99,,2013-02-22 21:11:00,
2013-02-22 15:21:00,19.0,15.0,-100.00,NNW,335,7.0,9.0,83,0.00,,,-99.99,,2013-02-22 21:21:00,
2013-02-22 15:32:00,19.0,15.0,-100.00,NW,320,4.0,9.0,83,0.00,,,-99.99,,2013-02-22 21:32:00,
2013-02-22 15:42:00,19.0,15.0,-100.00,NNW,330,6.0,9.0,84,0.00,,,-99.99,,2013-02-22 21:42:00,
2013-02-22 15:52:00,19.0,15.0,-100.00,NNW,330,6.0,9.0,84,0.00,,,-99.99,,2013-02-22 21:52:00,
2013-02-22 16:01:00,20.0,16.0,-100.00,NNW,340,6.0,9.0,84,0.00,,,-99.99,,2013-02-22 22:01:00,
2013-02-22 16:11:00,20.0,16.0,-100.00,NNW,340,6.0,9.0,84,0.00,,,-99.99,,2013-02-22 22:11:00,
2013-02-22 16:21:00,19.0,16.0,-100.00,NNW,335,6.0,9.0,84,0.00,,,-99.99,,2013-02-22 22:21:00,
2013-02-22 16:31:00,19.0,15.0,-100.00,NW,315,2.0,9.0,84,0.00,,,-99.99,,2013-02-22 22:31:00,
2013-02-22 16:42:00,20.0,16.0,-100.00,NNW,345,6.0,9.0,85,0.00,,,-99.99,,2013-02-22 22:42:00,
2013-02-22 16:51:00,20.0,16.0,-100.00,NNW,345,6.0,9.0,85,0.00,,,-99.99,,2013-02-22 22:51:00,
2013-02-22 17:01:00,19.0,16.0,-100.00,NNW,335,3.0,9.0,85,0.00,,,-99.99,,2013-02-22 23:01:00,
2013-02-22 17:11:00,19.0,16.0,-100.00,NNW,335,3.0,9.0,85,0.00,,,-99.99,,2013-02-22 23:11:00,
2013-02-22 17:21:00,19.0,16.0,-100.00,NW,310,6.0,7.0,87,0.00,,,-99.99,,2013-02-22 23:21:00,
2013-02-22 17:31:00,19.0,16.0,-100.00,NNW,335,6.0,7.0,88,0.00,,,-99.99,,2013-02-22 23:31:00,
2013-02-22 17:41:00,18.0,16.0,-100.00,NW,310,6.0,8.0,90,0.00,,,-99.99,,2013-02-22 23:41:00,
2013-02-22 17:52:00,18.0,16.0,-100.00,NW,310,6.0,8.0,90,0.00,,,-99.99,,2013-02-22 23:52:00,
2013-02-22 18:01:00,18.0,16.0,-100.00,NNW,335,5.0,7.0,91,0.00,,,-99.99,,2013-02-23 00:01:00,
2013-02-22 18:11:00,18.0,16.0,-100.00,NNW,335,5.0,7.0,91,0.00,,,-99.99,,2013-02-23 00:11:00,
2013-02-22 18:21:00,18.0,16.0,-100.00,NNW,330,4.0,6.0,92,0.00,,,-99.99,,2013-02-23 00:21:00,
2013-02-22 18:32:00,17.0,16.0,-100.00,North,0,2.0,4.0,92,0.00,,,-99.99,,2013-02-23 00:32:00,
2013-02-22 18:42:00,17.0,16.0,-100.00,NW,320,3.0,4.0,93,0.00,,,-99.99,,2013-02-23 00:42:00,
2013-02-22 18:51:00,17.0,16.0,-100.00,NW,320,3.0,4.0,93,0.00,,,-99.99,,2013-02-23 00:51:00,
2013-02-22 19:01:00,17.0,16.0,-100.00,NW,315,5.0,6.0,93,0.00,,,-99.99,,2013-02-23 01:01:00,
2013-02-22 19:11:00,17.0,16.0,-100.00,NW,315,5.0,6.0,93,0.00,,,-99.99,,2013-02-23 01:11:00,
2013-02-22 19:21:00,17.0,16.0,-100.00,NW,325,4.0,7.0,94,0.01,,,-99.99,,2013-02-23 01:21:00,
2013-02-22 19:31:00,17.0,16.0,-100.00,NW,315,4.0,6.0,95,0.00,,,-99.99,,2013-02-23 01:31:00,
2013-02-22 19:42:00,16.0,15.0,-100.00,NW,320,5.0,7.0,96,0.00,,,-99.99,,2013-02-23 01:42:00,
2013-02-22 19:51:00,16.0,15.0,-100.00,NW,320,5.0,7.0,96,0.00,,,-99.99,,2013-02-23 01:51:00,
2013-02-22 20:01:00,16.0,15.0,-100.00,NW,315,4.0,6.0,96,0.00,,,-99.99,,2013-02-23 02:01:00,
2013-02-22 20:11:00,16.0,15.0,-100.00,NW,315,4.0,6.0,96,0.00,,,-99.99,,2013-02-23 02:11:00,
2013-02-22 20:21:00,16.0,16.0,-100.00,NW,325,4.0,6.0,96,0.00,,,-99.99,,2013-02-23 02:21:00,
2013-02-22 20:31:00,16.0,16.0,-100.00,NW,310,4.0,7.0,96,0.00,,,-99.99,,2013-02-23 02:31:00,
2013-02-22 20:42:00,16.0,16.0,-100.00,NW,315,4.0,6.0,97,0.00,,,-99.99,,2013-02-23 02:42:00,
2013-02-22 20:52:00,16.0,16.0,-100.00,NW,315,4.0,6.0,97,0.00,,,-99.99,,2013-02-23 02:52:00,
2013-02-22 21:01:00,16.0,16.0,-100.00,NW,315,3.0,4.0,97,0.00,,,-99.99,,2013-02-23 03:01:00,
2013-02-22 21:11:00,16.0,16.0,-100.00,NW,315,3.0,4.0,97,0.00,,,-99.99,,2013-02-23 03:11:00,
2013-02-22 21:21:00,16.0,16.0,-100.00,NW,315,4.0,5.0,98,0.00,,,-99.99,,2013-02-23 03:21:00,
2013-02-22 21:32:00,16.0,16.0,-100.00,WNW,295,5.0,6.0,98,0.00,,,-99.99,,2013-02-23 03:32:00,
2013-02-22 21:42:00,16.0,16.0,-100.00,NNW,330,3.0,6.0,98,0.00,,,-99.99,,2013-02-23 03:42:00,
2013-02-22 21:51:00,16.0,16.0,-100.00,NNW,330,3.0,6.0,98,0.00,,,-99.99,,2013-02-23 03:51:00,
2013-02-22 22:01:00,16.0,16.0,-100.00,NW,325,2.0,4.0,98,0.00,,,-99.99,,2013-02-23 04:01:00,
2013-02-22 22:11:00,16.0,16.0,-100.00,NW,325,2.0,4.0,98,0.00,,,-99.99,,2013-02-23 04:11:00,
2013-02-22 22:21:00,16.0,15.0,-100.00,NW,315,4.0,7.0,98,0.00,,,-99.99,,2013-02-23 04:21:00,
2013-02-22 22:31:00,15.0,15.0,-100.00,NW,320,4.0,7.0,98,0.00,,,-99.99,,2013-02-23 04:31:00,
2013-02-22 22:41:00,15.0,15.0,-100.00,NW,305,4.0,6.0,99,0.00,,,-99.99,,2013-02-23 04:41:00,
2013-02-22 22:51:00,15.0,15.0,-100.00,NW,305,4.0,6.0,99,0.00,,,-99.99,,2013-02-23 04:51:00,
2013-02-22 23:02:00,15.0,15.0,-100.00,WNW,300,4.0,6.0,99,0.00,,,-99.99,,2013-02-23 05:02:00,
2013-02-22 23:12:00,15.0,15.0,-100.00,WNW,300,4.0,6.0,99,0.00,,,-99.99,,2013-02-23 05:12:00,
2013-02-22 23:22:00,15.0,15.0,-100.00,WNW,300,4.0,6.0,99,0.00,,,-99.99,,2013-02-23 05:22:00,
2013-02-22 23:32:00,15.0,15.0,-100.00,NW,310,3.0,6.0,99,0.00,,,-99.99,,2013-02-23 05:32:00,
2013-02-22 23:42:00,15.0,15.0,-100.00,North,355,2.0,4.0,99,0.00,,,-99.99,,2013-02-23 05:42:00,
2013-02-22 23:52:00,15.0,15.0,-100.00,North,355,2.0,4.0,99,0.00,,,-99.99,,2013-02-23 05:52:00,